Regional Weather Roundup
Issued by NWS

Home | Current Version | Previous Version | Text Only | Print | Product List | Glossary Off
Versions: 1 2 3 4 5 6 7 8 9 10 11 12 13 14 15 16 17 18 19 20 21 22 23 24 25 26 27 28 29 30 31 32 33 34 35 36 37 38 39 40 41 42 43 44 45 46 47 48 49 50

000
ASUS43 KLMK 012002
RWRKY
KENTUCKY REGIONAL WEATHER ROUNDUP
NATIONAL WEATHER SERVICE LOUISVILLE KY
400 PM EDT MON SEP 01 2014

NOTE "FAIR" INDICATES FEW OR NO CLOUDS BELOW 12,000 FEET
WITH NO SIGNIFICANT WEATHER AND/OR OBSTRUCTIONS TO VISIBILITY.

KYZ001>023-026-027-061>063-070>075-012100-
WESTERN AND SOUTH CENTRAL KENTUCKY

CITY           SKY/WX    TMP DP  RH WIND       PRES   REMARKS
PADUCAH        PTSUNNY   87  71  58 SW15G29   29.88F HX  93
HENDERSON      CLOUDY    84  72  65 SW13      29.90F
OWENSBORO      NOT AVBL
HOPKINSVILLE   CLOUDY    84  77  78 SW13      29.99F HX  94
BOWLING GREEN  PTSUNNY   87  69  54 SW17G23   29.99F HX  91
GLASGOW        PTSUNNY   87  69  54 SW16      30.00S HX  91
$$

KYZ024-025-028>034-038-045-046-053-012100-
NORTH CENTRAL KENTUCKY

CITY           SKY/WX    TMP DP  RH WIND       PRES   REMARKS
LOUISVILLE/SDF PTSUNNY   88  72  58 SW16G28   29.93S HX  94
LOUISVILLE/LOU PTSUNNY   86  72  62 SW10G28   29.94S HX  92
FORT KNOX      MOSUNNY   87  73  64 S18       29.95R HX  94
$$

KYZ035>037-039>044-047>052-055>060-089>105-012100-
NORTHEAST KENTUCKY

CITY           SKY/WX    TMP DP  RH WIND       PRES   REMARKS
LEXINGTON      PTSUNNY   85  72  65 SW13G24   29.99F HX  91
COVINGTON      PTSUNNY   84  71  65 SW13G18   29.94S
FRANKFORT      MOSUNNY   83  71  67 SW15G28   29.96F
$$

KYZ054-064>069-076>088-106>120-012100-
SOUTHEAST KENTUCKY

CITY           SKY/WX    TMP DP  RH WIND       PRES   REMARKS
JACKSON        MOSUNNY   85  70  60 MISG      30.04F
LONDON         SUNNY     90  64  42 SW14G22   30.04F HX  91
SOMERSET       PTSUNNY   88  64  45 W16       30.04F
MIDDLESBORO    SUNNY     87  72  61 S8        30.07F HX  93
MONTICELLO     CLEAR     89  70  53 SW16      30.05F HX  94
$$




USA.gov is the U.S. government's official web portal to all federal, state and local government web resources and services.